Date,Installs,Update checks
2021-07-26,5,2
2021-07-27,2,0
2021-07-28,4,1
2021-07-29,2,2
2021-07-30,2,6
2021-07-31,2,5
2021-08-01,5,4
2021-08-02,3,2
2021-08-03,5,4
2021-08-04,9,8
2021-08-05,4,10
2021-08-06,1,11
2021-08-07,4,8
2021-08-08,7,12
2021-08-09,1,12
2021-08-10,4,12
2021-08-11,1,9
2021-08-12,1,13
2021-08-13,3,17
2021-08-14,3,11
2021-08-15,3,18
2021-08-16,7,18
2021-08-17,5,22
2021-08-18,5,21
2021-08-19,2,22
2021-08-20,4,21
2021-08-21,2,19
2021-08-22,5,24
2021-08-23,4,23
2021-08-24,3,26
2021-08-25,0,32
2021-08-26,0,33
2021-08-27,1,35
2021-08-28,4,29
2021-08-29,2,34
2021-08-30,4,34
2021-08-31,3,30
2021-09-01,1,25
2021-09-02,1,32
2021-09-03,2,28
2021-09-04,0,34
2021-09-05,0,35
2021-09-06,0,29
2021-09-07,0,25
2021-09-08,1,30
2021-09-09,0,29
2021-09-10,0,33
2021-09-11,0,27
2021-09-12,2,27
2021-09-13,0,27
2021-09-14,1,33
2021-09-15,0,34
2021-09-16,0,30
2021-09-17,2,29
2021-09-18,1,28
2021-09-19,0,27
2021-09-20,0,25
2021-09-21,1,32
2021-09-22,1,31
2021-09-23,1,30
2021-09-24,0,32
2021-09-25,0,30
2021-09-26,0,32
2021-09-27,5,27
2021-09-28,1,24
2021-09-29,0,30
2021-09-30,0,26
2021-10-01,0,26
2021-10-02,1,27
2021-10-03,0,26
2021-10-04,1,28
2021-10-05,0,29
2021-10-06,1,28
2021-10-07,1,33
2021-10-08,0,33
2021-10-09,0,27
2021-10-10,0,28
2021-10-11,1,31
2021-10-12,0,31
2021-10-13,0,28
2021-10-14,1,32
2021-10-15,0,31
2021-10-16,1,32
2021-10-17,0,25
2021-10-18,2,26
2021-10-19,0,23
2021-10-20,0,28
2021-10-21,0,25
2021-10-22,1,29
2021-10-23,0,22
2021-10-24,0,29
2021-10-25,0,22
2021-10-26,0,25
2021-10-27,0,23
2021-10-28,0,21
2021-10-29,2,22
2021-10-30,0,21
2021-10-31,1,21
2021-11-01,0,23
2021-11-02,1,21
2021-11-03,1,27
2021-11-04,1,21
2021-11-05,0,26
2021-11-06,1,23
2021-11-07,0,30
2021-11-08,1,24
2021-11-09,0,29
2021-11-10,0,21
2021-11-11,0,27
2021-11-12,0,25
2021-11-13,2,25
2021-11-14,0,22
2021-11-15,0,24
2021-11-16,0,25
2021-11-17,0,21
2021-11-18,2,24
2021-11-19,1,23
2021-11-20,0,23
2021-11-21,0,29
2021-11-22,0,25
2021-11-23,1,24
2021-11-24,0,24
2021-11-25,0,23
2021-11-26,1,28
2021-11-27,0,20
2021-11-28,0,26
2021-11-29,0,27
2021-11-30,0,21
2021-12-01,1,23
2021-12-02,0,21
2021-12-03,1,24
2021-12-04,0,22
2021-12-05,0,21
2021-12-06,1,22
2021-12-07,1,20
2021-12-08,0,27
2021-12-09,0,19
2021-12-10,1,25
2021-12-11,1,24
2021-12-12,0,27
2021-12-13,2,22
2021-12-14,0,20
2021-12-15,0,24
2021-12-16,0,17
2021-12-17,0,22
2021-12-18,0,25
2021-12-19,0,24
2021-12-20,1,20
2021-12-21,0,21
2021-12-22,1,18
2021-12-23,0,20
2021-12-24,0,21
2021-12-25,0,19
2021-12-26,0,23
2021-12-27,0,25
2021-12-28,1,18
2021-12-29,0,16
2021-12-30,0,16
2021-12-31,0,24
2022-01-01,0,21
2022-01-02,0,19
2022-01-03,2,21
2022-01-04,0,24
2022-01-05,0,22
2022-01-06,0,25
2022-01-07,1,22
2022-01-08,1,23
2022-01-09,0,3
2022-01-10,1,0
2022-01-11,0,22
2022-01-12,0,17
2022-01-13,1,22
2022-01-14,1,24
2022-01-15,0,24
2022-01-16,0,17
2022-01-17,0,22
2022-01-18,0,23
2022-01-19,0,25
2022-01-20,0,22
2022-01-21,0,22
2022-01-22,0,19
2022-01-23,0,19
2022-01-24,1,22
2022-01-25,1,17
2022-01-26,0,18
2022-01-27,0,22
2022-01-28,1,17
2022-01-29,0,17
2022-01-30,0,20
2022-01-31,0,18
2022-02-01,0,17
2022-02-02,0,20
2022-02-03,1,20
2022-02-04,3,18
2022-02-05,1,21
2022-02-06,0,17
2022-02-07,0,19
2022-02-08,0,17
2022-02-09,0,19
2022-02-10,0,21
2022-02-11,0,20
2022-02-12,1,20
2022-02-13,0,16
2022-02-14,0,20
2022-02-15,0,18
2022-02-16,0,16
2022-02-17,0,18
2022-02-18,1,16
2022-02-19,0,18
2022-02-20,1,20
2022-02-21,0,20
2022-02-22,0,17
2022-02-23,4,18
2022-02-24,1,18
2022-02-25,0,20
2022-02-26,1,18
2022-02-27,2,17
2022-02-28,1,23
2022-03-01,0,17
2022-03-02,0,19
2022-03-03,0,22
2022-03-04,1,18
2022-03-05,0,20
2022-03-06,1,20
2022-03-07,0,16
2022-03-08,0,14
2022-03-09,0,21
2022-03-10,1,16
2022-03-11,0,18
2022-03-12,0,14
2022-03-13,0,12
2022-03-14,1,15
2022-03-15,0,15
2022-03-16,0,17
2022-03-17,0,18
2022-03-18,1,17
2022-03-19,0,17
2022-03-20,0,16
2022-03-21,0,15
2022-03-22,0,15
2022-03-23,1,14
2022-03-24,1,16
2022-03-25,0,11
2022-03-26,0,17
2022-03-27,1,11
2022-03-28,0,14
2022-03-29,0,12
2022-03-30,0,14
2022-03-31,0,16
2022-04-01,0,15
2022-04-02,0,12
2022-04-03,0,18
2022-04-04,0,13
2022-04-05,0,13
2022-04-06,0,15
2022-04-07,0,16
2022-04-08,1,18
2022-04-09,1,17
2022-04-10,0,20
2022-04-11,0,13
2022-04-12,1,17
2022-04-13,2,19
2022-04-14,1,13
2022-04-15,1,11
2022-04-16,0,16
2022-04-17,1,16
2022-04-18,2,19
2022-04-19,1,11
2022-04-20,1,14
2022-04-21,0,13
2022-04-22,0,11
2022-04-23,0,13
2022-04-24,10,18
2022-04-25,2,12
2022-04-26,0,10
2022-04-27,1,17
2022-04-28,0,17
2022-04-29,0,20
2022-04-30,0,12
2022-05-01,0,16
2022-05-02,0,11
2022-05-03,0,17
2022-05-04,0,14
2022-05-05,0,14
2022-05-06,0,15
2022-05-07,1,16
2022-05-08,1,17
2022-05-09,0,15
2022-05-10,0,14
2022-05-11,0,15
2022-05-12,0,16
2022-05-13,0,16
2022-05-14,0,15
2022-05-15,0,17
2022-05-16,0,15
2022-05-17,1,14
2022-05-18,0,19
2022-05-19,0,16
2022-05-20,0,17
2022-05-21,0,15
2022-05-22,0,19
2022-05-23,0,14
2022-05-24,0,18
2022-05-25,0,13
2022-05-26,0,15
2022-05-27,1,17
2022-05-28,0,14
2022-05-29,0,16
2022-05-30,1,16
2022-05-31,0,19
2022-06-01,0,15
2022-06-02,1,13
2022-06-03,1,20
2022-06-04,1,16
2022-06-05,1,18
2022-06-06,0,16
2022-06-07,0,14
2022-06-08,1,15
2022-06-09,0,16
2022-06-10,0,18
2022-06-11,1,16
2022-06-12,1,12
2022-06-13,0,15
2022-06-14,1,15
2022-06-15,0,15
2022-06-16,1,18
2022-06-17,0,15
2022-06-18,0,13
2022-06-19,0,17
2022-06-20,0,13
2022-06-21,0,18
2022-06-22,1,16
2022-06-23,0,16
2022-06-24,1,15
2022-06-25,0,18
2022-06-26,0,16
2022-06-27,1,16
2022-06-28,2,13
2022-06-29,1,15
2022-06-30,1,17
2022-07-01,0,18
2022-07-02,2,11
2022-07-03,1,19
2022-07-04,1,16
2022-07-05,1,15
2022-07-06,1,18
2022-07-07,2,16
2022-07-08,2,19
2022-07-09,0,17
2022-07-10,1,20
2022-07-11,1,16
2022-07-12,2,17
2022-07-13,1,20
2022-07-14,3,18
2022-07-15,1,16
2022-07-16,1,15
2022-07-17,0,13
2022-07-18,0,16
2022-07-19,3,16
2022-07-20,0,16
2022-07-21,1,15
2022-07-22,1,11
2022-07-23,2,14
2022-07-24,0,13
2022-07-25,2,20
2022-07-26,0,16
2022-07-27,1,15
2022-07-28,0,22
2022-07-29,0,17
2022-07-30,0,12
2022-07-31,2,14
2022-08-01,1,19
2022-08-02,1,15
2022-08-03,0,17
2022-08-04,0,18
2022-08-05,0,19
2022-08-06,49,16
2022-08-07,36,22
2022-08-08,14,17
2022-08-09,1,17
2022-08-10,1,15
2022-08-11,1,17
2022-08-12,0,18
2022-08-13,3,20
2022-08-14,4,14
2022-08-15,2,16
2022-08-16,1,19
2022-08-17,1,18
2022-08-18,3,16
2022-08-19,0,17
2022-08-20,4,19
2022-08-21,0,18
2022-08-22,0,17
2022-08-23,0,19
2022-08-24,0,20
2022-08-25,1,20
2022-08-26,0,16
2022-08-27,1,21
2022-08-28,0,18
2022-08-29,0,17
2022-08-30,1,17
2022-08-31,0,16
2022-09-01,1,17
2022-09-02,1,16
2022-09-03,1,17
2022-09-04,2,19
2022-09-05,1,18
2022-09-06,0,19
2022-09-07,0,18
2022-09-08,0,19
2022-09-09,0,18
2022-09-10,2,12
2022-09-11,0,25
2022-09-12,0,14
2022-09-13,4,22
2022-09-14,0,19
2022-09-15,0,15
2022-09-16,1,18
2022-09-17,1,16
2022-09-18,1,15
2022-09-19,0,15
2022-09-20,0,18
2022-09-21,0,17
2022-09-22,0,18
2022-09-23,0,21
2022-09-24,0,18
2022-09-25,0,20
2022-09-26,0,16
2022-09-27,0,20
2022-09-28,1,21
2022-09-29,0,18
2022-09-30,0,16
2022-10-01,0,17
2022-10-02,1,17
2022-10-03,1,19
2022-10-04,1,19
2022-10-05,1,15
2022-10-06,0,16
2022-10-07,0,15
2022-10-08,1,15
2022-10-09,3,16
2022-10-10,1,20
2022-10-11,0,13
2022-10-12,1,19
2022-10-13,1,14
2022-10-14,1,14
2022-10-15,2,16
2022-10-16,0,22
2022-10-17,1,16
2022-10-18,0,16
2022-10-19,1,14
2022-10-20,2,12
2022-10-21,0,17
2022-10-22,0,15
2022-10-23,0,17
2022-10-24,0,13
2022-10-25,1,16
2022-10-26,0,13
2022-10-27,0,18
2022-10-28,0,13
2022-10-29,1,15
2022-10-30,0,14
2022-10-31,0,13
2022-11-01,3,16
2022-11-02,2,17
2022-11-03,0,16
2022-11-04,0,14
2022-11-05,0,17
2022-11-06,0,17
2022-11-07,1,15
2022-11-08,1,11
2022-11-09,0,15
2022-11-10,1,15
2022-11-11,0,16
2022-11-12,0,16
2022-11-13,0,15
2022-11-14,0,15
2022-11-15,0,17
2022-11-16,0,18
2022-11-17,1,15
2022-11-18,0,14
2022-11-19,0,11
2022-11-20,0,17
2022-11-21,1,13
2022-11-22,1,14
2022-11-23,1,10
2022-11-24,0,18
2022-11-25,0,14
2022-11-26,1,16
2022-11-27,0,12
2022-11-28,1,15
2022-11-29,0,12
2022-11-30,0,13
2022-12-01,0,13
2022-12-02,0,13
2022-12-03,0,11
2022-12-04,2,18
2022-12-05,0,9
2022-12-06,0,14
2022-12-07,0,14
2022-12-08,0,16
2022-12-09,0,11
2022-12-10,0,11
2022-12-11,0,12
2022-12-12,1,11
2022-12-13,0,11
2022-12-14,1,12
2022-12-15,1,18
2022-12-16,1,13
2022-12-17,1,12
2022-12-18,0,13
2022-12-19,0,10
2022-12-20,0,11
2022-12-21,0,6
2022-12-22,0,12
2022-12-23,0,13
2022-12-24,1,12
2022-12-25,0,15
2022-12-26,0,12
2022-12-27,0,14
2022-12-28,0,8
2022-12-29,1,12
2022-12-30,0,10
2022-12-31,3,12
2023-01-01,1,12
2023-01-02,1,14
2023-01-03,0,13
2023-01-04,0,13
2023-01-05,0,16
2023-01-06,0,14
2023-01-07,0,12
2023-01-08,0,16
2023-01-09,0,9
2023-01-10,0,12
2023-01-11,0,13
2023-01-12,0,15
2023-01-13,0,15
2023-01-14,1,12
2023-01-15,0,14
2023-01-16,0,14
2023-01-17,0,12
2023-01-18,1,14
2023-01-19,0,13
2023-01-20,0,13
2023-01-21,0,11
2023-01-22,0,15
2023-01-23,0,9
2023-01-24,0,13
2023-01-25,0,10
2023-01-26,0,14
2023-01-27,1,9
2023-01-28,0,15
2023-01-29,0,12
2023-01-30,0,13
2023-01-31,1,16
2023-02-01,0,14
2023-02-02,0,15
2023-02-03,0,16
2023-02-04,0,15
2023-02-05,0,17
2023-02-06,0,13
2023-02-07,0,14
2023-02-08,0,16
2023-02-09,0,17
2023-02-10,0,12
2023-02-11,1,9
2023-02-12,0,15
2023-02-13,0,15
2023-02-14,0,14
2023-02-15,0,10
2023-02-16,0,15
2023-02-17,0,15
2023-02-18,0,11
2023-02-19,1,18
2023-02-20,1,18
2023-02-21,0,21
2023-02-22,0,17
2023-02-23,0,17
2023-02-24,0,12
2023-02-25,0,15
2023-02-26,0,14
2023-02-27,0,16
2023-02-28,0,16
2023-03-01,0,14
2023-03-02,0,18
2023-03-03,0,17
2023-03-04,0,14
2023-03-05,1,13
2023-03-06,1,11
2023-03-07,0,17
2023-03-08,0,16
2023-03-09,0,13
2023-03-10,0,14
2023-03-11,17,13
2023-03-12,1,17
2023-03-13,0,16
2023-03-14,2,18
2023-03-15,0,19
2023-03-16,1,14
2023-03-17,0,21
2023-03-18,0,13
2023-03-19,0,11
2023-03-20,0,18
2023-03-21,1,16
2023-03-22,1,12
2023-03-23,0,15
2023-03-24,0,15
2023-03-25,0,14
2023-03-26,0,17
2023-03-27,0,17
2023-03-28,0,19
2023-03-29,0,16
2023-03-30,0,19
2023-03-31,0,21
2023-04-01,0,11
2023-04-02,0,17
2023-04-03,0,16
2023-04-04,0,18
2023-04-05,0,15
2023-04-06,0,12
2023-04-07,0,12
2023-04-08,0,16
2023-04-09,1,16
2023-04-10,0,18
2023-04-11,0,17
2023-04-12,0,13
2023-04-13,0,14
2023-04-14,0,12
2023-04-15,0,17
2023-04-16,0,18
2023-04-17,0,16
2023-04-18,1,15
2023-04-19,0,18
2023-04-20,0,14
2023-04-21,0,14
2023-04-22,0,17
2023-04-23,0,12
2023-04-24,0,17
2023-04-25,0,17
2023-04-26,0,21
2023-04-27,0,19
2023-04-28,0,18
2023-04-29,0,16
2023-04-30,0,19
2023-05-01,0,18
2023-05-02,0,16
2023-05-03,0,11
2023-05-04,0,18
2023-05-05,0,18
2023-05-06,0,16
2023-05-07,0,12
2023-05-08,0,18
2023-05-09,0,16
2023-05-10,1,16
2023-05-11,1,12
2023-05-12,0,16
2023-05-13,0,16
2023-05-14,0,9
2023-05-15,0,13
2023-05-16,0,11
2023-05-17,0,20
2023-05-18,0,11
2023-05-19,1,17
2023-05-20,0,13
2023-05-21,1,11
2023-05-22,0,12
2023-05-23,0,14
2023-05-24,0,13
2023-05-25,0,14
2023-05-26,0,14
2023-05-27,1,15
2023-05-28,0,12
2023-05-29,0,16
2023-05-30,0,13
2023-05-31,0,13
2023-06-01,0,7
2023-06-02,0,14
2023-06-03,0,8
2023-06-04,0,15
2023-06-05,0,12
2023-06-06,1,15
2023-06-07,0,8
2023-06-08,0,18
2023-06-09,0,13
2023-06-10,0,11
2023-06-11,0,16
2023-06-12,0,15
2023-06-13,0,13
2023-06-14,0,13
2023-06-15,0,8
2023-06-16,0,15
2023-06-17,0,13
2023-06-18,0,13
2023-06-19,0,15
2023-06-20,2,14
2023-06-21,0,11
2023-06-22,0,11
2023-06-23,0,13
2023-06-24,0,11
2023-06-25,0,13
2023-06-26,0,15
2023-06-27,1,13
2023-06-28,1,10
2023-06-29,0,9
2023-06-30,0,14
2023-07-01,0,13
2023-07-02,1,7
2023-07-03,0,11
2023-07-04,0,14
2023-07-05,0,11
2023-07-06,0,7
2023-07-07,0,10
2023-07-08,0,12
2023-07-09,1,9
2023-07-10,0,11
2023-07-11,0,12
2023-07-12,8,10
2023-07-13,1,13
2023-07-14,1,15
2023-07-15,0,12
2023-07-16,1,10
2023-07-17,1,13
2023-07-18,0,13
2023-07-19,0,12
2023-07-20,0,13
2023-07-21,0,11
2023-07-22,1,12
2023-07-23,0,14
2023-07-24,0,11
2023-07-25,0,11
2023-07-26,0,12
2023-07-27,0,16
2023-07-28,0,14
2023-07-29,0,15
2023-07-30,0,10
2023-07-31,1,14
2023-08-01,0,15
2023-08-02,0,9
2023-08-03,0,11
2023-08-04,0,12
2023-08-05,0,12
2023-08-06,0,11
2023-08-07,0,16
2023-08-08,0,14
2023-08-09,2,12
2023-08-10,0,13
2023-08-11,0,11
2023-08-12,0,10
2023-08-13,0,10
2023-08-14,0,15
2023-08-15,0,9
2023-08-16,0,15
2023-08-17,0,12
2023-08-18,1,10
2023-08-19,0,9
2023-08-20,0,14
2023-08-21,0,14
2023-08-22,0,10
2023-08-23,0,15
2023-08-24,0,9
2023-08-25,0,14
2023-08-26,1,12
2023-08-27,1,12
2023-08-28,0,12
2023-08-29,2,14
2023-08-30,0,14
2023-08-31,0,17
2023-09-01,0,10
2023-09-02,0,12
2023-09-03,1,10
2023-09-04,1,12
2023-09-05,0,16
2023-09-06,0,9
2023-09-07,1,10
2023-09-08,0,10
2023-09-09,0,14
2023-09-10,0,9
2023-09-11,0,13
2023-09-12,0,12
2023-09-13,1,15
2023-09-14,0,11
2023-09-15,0,18
2023-09-16,0,12
2023-09-17,0,13
2023-09-18,0,13
2023-09-19,0,14
2023-09-20,0,10
2023-09-21,1,13
2023-09-22,0,15
2023-09-23,0,16
2023-09-24,2,7
2023-09-25,0,12
2023-09-26,0,13
2023-09-27,0,19
2023-09-28,0,12
2023-09-29,0,11
2023-09-30,0,10
2023-10-01,0,11
2023-10-02,0,12
2023-10-03,0,17
2023-10-04,0,9
2023-10-05,1,15
2023-10-06,0,10
2023-10-07,0,12
2023-10-08,0,12
2023-10-09,0,8
2023-10-10,0,12
2023-10-11,1,11
2023-10-12,0,15
2023-10-13,0,11
2023-10-14,2,9
2023-10-15,0,11
2023-10-16,0,14
2023-10-17,0,15
2023-10-18,0,13
2023-10-19,0,11
2023-10-20,0,13
2023-10-21,0,12
2023-10-22,0,10
2023-10-23,0,14
2023-10-24,0,12
2023-10-25,0,13
2023-10-26,0,10
2023-10-27,1,11
2023-10-28,0,13
2023-10-29,0,11
2023-10-30,2,15
2023-10-31,0,12
2023-11-01,0,10
2023-11-02,0,10
2023-11-03,1,11
2023-11-04,0,8
2023-11-05,0,11
2023-11-06,0,12
2023-11-07,0,13
2023-11-08,1,14
2023-11-09,0,13
2023-11-10,0,10
2023-11-11,1,11
2023-11-12,0,9
2023-11-13,0,13
2023-11-14,0,13
2023-11-15,1,9
2023-11-16,2,13
2023-11-17,0,12
2023-11-18,0,11
2023-11-19,0,13
2023-11-20,0,10
2023-11-21,0,11
2023-11-22,0,10
2023-11-23,0,13
2023-11-24,1,12
2023-11-25,0,12
2023-11-26,0,8
2023-11-27,0,13
2023-11-28,1,11
2023-11-29,0,14
2023-11-30,0,12
2023-12-01,0,14
2023-12-02,1,11
2023-12-03,0,8
2023-12-04,0,10
2023-12-05,0,9
2023-12-06,0,6
2023-12-07,0,7
2023-12-08,0,10
2023-12-09,1,8
2023-12-10,0,5
2023-12-11,0,6
2023-12-12,0,5
2023-12-13,1,5
2023-12-14,0,7
2023-12-15,0,5
2023-12-16,0,3
2023-12-17,0,5
2023-12-18,0,7
2023-12-19,0,6
2023-12-20,0,2
2023-12-21,0,7
2023-12-22,0,5
2023-12-23,0,2
2023-12-24,0,5
2023-12-25,0,6
2023-12-26,0,4
2023-12-27,0,4
2023-12-28,0,7
2023-12-29,2,3
2023-12-30,0,3
2023-12-31,0,3
2024-01-01,0,4
2024-01-02,0,6
2024-01-03,0,5
2024-01-04,0,9
2024-01-05,0,8
2024-01-06,0,6
2024-01-07,0,4
2024-01-08,0,8
2024-01-09,0,3
2024-01-10,0,6
2024-01-11,0,4
2024-01-12,0,7
2024-01-13,0,4
2024-01-14,0,7
2024-01-15,0,5
2024-01-16,0,4
2024-01-17,0,6
2024-01-18,0,6
2024-01-19,0,6
2024-01-20,0,10
2024-01-21,0,9
2024-01-22,0,7
2024-01-23,0,6
2024-01-24,0,7
2024-01-25,0,8
2024-01-26,0,11
2024-01-27,2,8
2024-01-28,0,5
2024-01-29,0,8
2024-01-30,1,10
2024-01-31,0,7
2024-02-01,0,8
2024-02-02,2,5
2024-02-03,0,9
2024-02-04,1,9
2024-02-05,0,5
2024-02-06,0,9
2024-02-07,0,8
2024-02-08,0,9
2024-02-09,0,8
2024-02-10,1,10
2024-02-11,0,9
2024-02-12,0,7
2024-02-13,0,9
2024-02-14,0,10
2024-02-15,2,12
2024-02-16,0,7
2024-02-17,0,9
2024-02-18,0,10
2024-02-19,1,9
2024-02-20,2,9
2024-02-21,0,11
2024-02-22,2,7
2024-02-23,0,6
2024-02-24,0,7
2024-02-25,0,8
2024-02-26,1,7
2024-02-27,0,4
2024-02-28,0,9
2024-02-29,0,5
2024-03-01,0,8
2024-03-02,0,9
2024-03-03,0,6
2024-03-04,0,6
2024-03-05,0,8
2024-03-06,0,6
2024-03-07,0,6
2024-03-08,0,3
2024-03-09,0,7
2024-03-10,0,6
2024-03-11,0,7
2024-03-12,0,7
2024-03-13,0,8
2024-03-14,0,5
2024-03-15,0,5
2024-03-16,0,6
2024-03-17,0,8
2024-03-18,0,7
2024-03-19,0,5
2024-03-20,0,6
2024-03-21,0,8
2024-03-22,0,9
2024-03-23,0,5
2024-03-24,0,7
2024-03-25,0,5
2024-03-26,0,5
2024-03-27,0,7
2024-03-28,0,7
2024-03-29,0,5
2024-03-30,0,9
2024-03-31,0,7
2024-04-01,0,9
2024-04-02,0,9
2024-04-03,0,5
2024-04-04,1,8
2024-04-05,0,3
2024-04-06,0,7
2024-04-07,0,10
2024-04-08,0,6
2024-04-09,0,7
2024-04-10,1,7
2024-04-11,0,7
2024-04-12,1,7
2024-04-13,0,6
2024-04-14,0,11
2024-04-15,0,7
2024-04-16,0,7
2024-04-17,0,7
2024-04-18,1,7
2024-04-19,0,7
2024-04-20,0,4
2024-04-21,0,6
2024-04-22,0,9
2024-04-23,0,6
2024-04-24,0,10
2024-04-25,0,7
2024-04-26,0,9
2024-04-27,0,7
2024-04-28,0,9
2024-04-29,0,9
2024-04-30,0,4
2024-05-01,0,5
2024-05-02,0,9
2024-05-03,0,8
2024-05-04,0,5
2024-05-05,0,5
2024-05-06,1,8
2024-05-07,0,7
2024-05-08,0,5
2024-05-09,0,9
2024-05-10,0,5
2024-05-11,0,5
2024-05-12,0,6
2024-05-13,0,3
2024-05-14,0,7
2024-05-15,0,6
2024-05-16,0,5
2024-05-17,0,6
2024-05-18,0,4
2024-05-19,0,5
2024-05-20,0,8
2024-05-21,0,8
2024-05-22,0,6
2024-05-23,0,7
2024-05-24,0,6
2024-05-25,0,4
2024-05-26,0,5
2024-05-27,0,5
2024-05-28,0,6
2024-05-29,0,4
2024-05-30,0,9
2024-05-31,0,2
